Hourly Data Report for July 05, 2021

IQALUIT CLIMATE
NUNAVUT
Current Station Operator: ECCC - MSC

63°44'50.000" N
68°32'40.000" W
33.50 m
2402592
71321
XFB

Download Data

Hourly Data (July 2021)
Hourly Data Report for July 5, 2021
TIME
LST
Temp Definition
°C
Dew Point Definition
°C
Rel Hum Definition
%
Precip. Amount Definition
mm

Wind Dir Definition
10's deg

Wind Spd Definition
km/h
Visibility Definition
km
Stn Press Definition
kPa
Hmdx Definition


Wind Chill Definition


Weather Definition


00:00 3.7 1.8 88 0.0 33 16   100.99     LegendNANA
01:00 2.9 1.1 88 0.0 33 20   100.99     LegendNANA
02:00 2.2 0.6 89 0.0 34 14   101.01     LegendNANA
03:00 2.0 0.6 90 0.0 32 15   101.01     LegendNANA
04:00 3.5 1.3 85 0.0 33 12   101.01     LegendNANA
05:00 4.3 1.5 82 0.0 32 13   101.02     LegendNANA
06:00 5.2 1.8 78 0.0 32 16   101.01     LegendNANA
07:00 6.2 0.6 67 0.0 33 20   100.97     LegendNANA
08:00 6.2 0.5 67 0.0 36 13   100.98     LegendNANA
09:00 6.7 0.2 63 0.0 34 18   100.96     LegendNANA
10:00 7.8 0.9 62 0.0 34 17   100.92     LegendNANA
11:00 8.5 1.5 61 0.0 33 13   100.87     LegendNANA
12:00 9.2 1.9 60 0.0 32 15   100.85     LegendNANA
13:00 9.7 1.6 57 0.0 33 17   100.81     LegendNANA
14:00 10.3 1.7 55 0.0 31 15   100.78     LegendNANA
15:00 10.0 0.3 51 0.0 30 18   100.73     LegendNANA
16:00 9.6 0.6 53 0.0 31 17   100.69     LegendNANA
17:00 8.9 -0.2 53 0.0 32 14   100.69     LegendNANA
18:00 8.3 1.1 61 0.0 29 19   100.69     LegendNANA
19:00 6.9 1.7 69 0.1 33 23   100.68     LegendNANA
20:00 6.5 1.0 68 0.0 34 24   100.66     LegendNANA
21:00 5.8 1.5 74 0.0 33 21   100.65     LegendNANA
22:00 5.1 1.7 79 0.0 33 23   100.63     LegendNANA
23:00 4.5 1.4 80 0.0 32 20   100.61     LegendNANA

Notes on Data Quality.

Legend

  • E = Estimated
  • M = Missing
  • NA = Not Available*
  • [empty] = Indicates an unobserved value
Date modified: